Temp
19 19 19 19 18 18 17 17 16 16 16 15 15 14 14 13 13 12 12 11 10 10
20 20 19 19 18 18 17 16 16 16 15 15 15 14 14 14 13 12 12 11 11 11
20 19 19 18 18 18 17 16 16 15 15 15 14 14 14 14 13 13 13 12 12 11
20 19 19 19 18 18 17 17 16 15 15 15 14 14 14 14 13 13 12 12 11 11
20 19 19 19 18 18 17 17 16 16 15 15 14 14 14 13 13 13 12 12 11 11
20 19 19 19 18 18 17 17 17 16 16 15 14 14 13 13 12 12 11 11 10 10
20 20 19 18 18 18 17 17 17 16 15 15 14 13 13 12 12 11 11 11 10 10
20 19 19 19 18 17 17 17 17 16 16 15 14 13 12 12 12 11 11 11 10 9
20 19 19 19 18 17 17 17 17 16 16 15 14 12 12 12 12 11 11 10 10 10
20 19 19 19 18 17 17 17 16 16 16 15 13 12 12 11 11 11 10 10 9 10
20 19 19 18 18 17 17 17 16 16 15 14 13 12 12 11 11 10 10 9 9 9
20 19 19 18 18 17 17 17 16 15 15 14 13 12 11 11 10 10 9 9 8 7
20 19 19 18 18 17 17 16 16 15 14 13 12 11 11 10 10 9 9 8 8 7
19 19 18 18 17 17 16 16 15 15 13 12 12 11 10 9 9 8 8 8 7 6
Height
1541 1543 1544 1545 1545 1544 1543 1542 1540 1538 1536 1535 1534 1532 1530 1528 1528 1527 1525 1525 1524 1523
1538 1539 1541 1542 1542 1542 1541 1539 1537 1534 1532 1530 1528 1527 1526 1525 1524 1522 1521 1520 1519 1516
1534 1536 1537 1539 1540 1539 1537 1535 1532 1531 1529 1527 1525 1524 1522 1520 1519 1517 1516 1514 1512 1510
1530 1532 1533 1535 1535 1535 1533 1530 1528 1526 1524 1523 1521 1520 1518 1517 1514 1512 1510 1509 1507 1505
1525 1527 1528 1530 1531 1530 1529 1527 1525 1523 1521 1519 1518 1516 1514 1512 1510 1508 1506 1504 1503 1500
1518 1521 1523 1525 1526 1526 1524 1522 1521 1519 1517 1515 1513 1511 1509 1507 1506 1503 1502 1500 1498 1495
1512 1515 1518 1520 1521 1521 1519 1518 1517 1515 1513 1511 1509 1506 1504 1503 1501 1499 1497 1495 1493 1490
1506 1509 1512 1513 1514 1515 1515 1514 1513 1511 1508 1506 1504 1502 1500 1498 1496 1494 1491 1490 1487 1484
1499 1502 1504 1506 1508 1510 1510 1509 1508 1506 1503 1501 1499 1497 1495 1493 1491 1488 1486 1484 1481 1479
1491 1494 1497 1500 1502 1504 1504 1503 1502 1500 1498 1495 1494 1492 1490 1488 1486 1484 1481 1478 1475 1472
1483 1486 1491 1494 1495 1497 1498 1497 1496 1494 1492 1490 1489 1486 1484 1483 1481 1479 1477 1474 1470 1467
1474 1478 1483 1485 1488 1490 1491 1490 1489 1487 1485 1484 1483 1481 1479 1478 1475 1473 1472 1468 1465 1462
1465 1470 1474 1478 1481 1483 1484 1484 1482 1480 1480 1478 1477 1476 1474 1472 1470 1469 1467 1464 1460 1457
1459 1463 1467 1471 1473 1476 1477 1476 1475 1474 1473 1472 1471 1470 1468 1467 1464 1462 1460 1457 1456 1454
Wind_Speed
13 13 12 11 11 12 13 14 15 17 18 17 17 18 20 21 22 23 25 26 27 29
14 13 9 7 7 8 11 13 13 14 15 16 17 18 19 21 21 23 24 24 24 26
14 12 10 8 4 7 10 12 13 12 13 14 14 16 18 19 19 21 22 22 24 25
16 14 13 9 5 7 10 13 14 14 14 14 14 15 16 17 18 19 20 20 22 24
18 19 17 11 6 7 10 13 15 15 15 14 14 14 15 16 17 19 19 19 22 24
23 23 19 14 8 8 10 13 16 17 16 15 14 14 15 17 18 20 21 21 23 24
27 25 21 16 12 9 10 12 15 16 17 16 15 16 16 18 19 19 20 21 23 24
28 27 24 22 17 13 11 12 15 17 17 17 16 16 17 17 18 19 20 20 22 23
31 31 29 25 21 17 14 14 15 17 19 18 17 17 17 18 19 19 20 22 21 21
35 35 32 27 24 20 16 16 16 17 20 20 17 17 17 18 18 19 20 21 21 21
39 38 34 31 27 22 18 17 17 18 20 20 17 17 17 18 18 19 19 20 20 21
43 41 38 35 30 24 20 18 18 18 20 19 16 17 18 17 18 19 18 17 18 19
44 43 41 37 32 26 21 19 19 18 19 18 16 17 17 18 18 17 17 15 16 17
44 43 41 37 32 26 22 19 19 19 18 17 17 17 18 18 18 17 16 18 17 17
Wind_Direction
233 246 262 278 290 302 310 313 310 307 306 305 302 300 297 296 296 294 292 292 290 291
231 239 250 256 276 310 319 320 316 311 310 308 306 302 299 300 302 299 297 296 293 290
226 228 218 220 260 323 330 330 328 321 315 312 310 307 304 305 304 301 303 302 299 298
216 212 205 209 243 319 331 333 332 326 321 318 317 314 309 309 307 305 307 307 304 304
210 206 206 212 241 300 330 334 332 325 321 318 317 315 312 312 311 309 310 312 307 308
209 209 209 217 240 286 321 334 330 323 321 317 314 311 310 308 309 309 310 311 310 311
212 212 214 222 237 273 305 319 324 322 317 312 311 310 308 306 307 307 310 311 310 309
214 215 218 226 236 257 286 306 320 322 316 311 310 307 305 305 306 307 309 312 311 308
215 217 222 227 234 248 275 297 311 318 315 310 306 304 303 305 308 311 314 314 314 314
219 221 224 227 234 245 266 288 303 312 312 307 304 299 301 302 307 310 313 315 318 319
223 224 225 228 234 243 260 282 296 305 309 304 298 295 299 304 309 311 315 318 320 319
226 226 226 229 235 244 258 277 290 301 304 297 293 294 300 305 306 310 314 318 321 316
229 228 229 232 235 244 257 273 284 296 298 292 292 295 299 303 306 311 312 317 318 313
233 231 230 231 234 243 256 269 283 294 291 287 291 293 299 304 309 311 313 317 319 318